Wind_Speed
19 20 21 22 22 23 22 23 23 23 23 23 23 22 22 22 22 23 24 23 20 20 24 21 16 11 13 17 17 17 17 26 13 22 24 24 25 27 24 23 28 33 30 35 39 24 11
21 23 23 24 24 26 26 27 26 26 25 24 24 24 23 22 21 22 23 24 19 17 17 21 18 15 12 18 15 18 14 13 20 21 21 25 24 23 20 22 28 25 24 23 34 20 15
26 27 28 29 30 30 29 29 30 30 29 28 27 25 24 23 23 21 22 23 21 19 18 13 15 16 14 10 13 11 21 13 17 25 22 25 22 24 22 20 26 24 29 25 36 32 29
30 31 32 33 33 33 33 33 33 32 32 31 30 29 26 25 24 23 22 23 21 21 20 20 14 17 21 14 15 13 15 17 20 24 34 26 29 29 20 17 27 30 29 36 37 34 28
30 31 31 30 29 30 30 31 32 32 33 33 33 32 30 28 26 25 22 24 23 21 22 20 23 17 22 16 18 17 15 17 16 18 22 29 31 28 23 21 22 28 21 29 30 40 31
31 31 31 31 31 31 30 31 32 33 33 34 34 34 33 32 28 28 25 23 25 25 24 24 24 23 14 16 15 16 18 17 22 21 28 29 33 30 21 24 22 30 21 30 36 41 40
29 29 29 30 31 32 34 35 36 36 35 34 33 32 33 33 32 28 28 25 25 27 28 27 24 21 18 18 19 15 20 21 26 26 31 28 38 34 31 33 26 24 20 28 24 26 35
30 31 32 33 33 34 36 38 39 41 41 41 40 36 30 30 33 30 28 26 25 28 34 30 28 30 27 23 24 17 21 26 31 30 25 22 34 37 26 24 26 26 27 21 27 32 25
34 35 36 36 36 36 37 37 37 38 39 39 39 40 37 29 31 31 29 28 25 25 34 40 33 36 32 30 26 24 25 26 29 27 30 31 42 37 27 26 30 17 25 23 18 29 25
35 36 36 39 39 40 40 39 39 39 37 38 38 36 35 30 28 30 30 26 22 20 18 31 31 26 29 34 30 30 23 29 21 28 27 27 27 31 26 28 32 22 19 16 23 16 13
36 37 39 40 41 40 40 41 41 39 38 37 36 35 32 30 26 28 28 23 19 15 7 10 16 17 15 30 21 26 25 32 21 23 29 27 28 30 30 33 25 20 20 20 19 18 12
38 38 39 40 42 42 42 42 42 40 41 39 35 31 30 27 26 24 27 23 17 9 10 11 14 15 20 30 28 21 30 32 25 21 23 26 22 30 28 23 25 23 18 17 17 11 9
40 41 43 44 44 44 44 44 43 42 42 41 40 32 27 25 20 22 26 20 13 16 10 18 23 22 22 31 27 27 37 41 30 22 25 27 29 30 34 30 31 27 22 7 5 5 9
41 42 43 44 44 44 44 44 43 41 41 42 41 36 26 23 21 21 22 24 23 19 35 19 15 21 27 25 27 27 34 35 37 25 28 30 19 31 35 32 34 37 33 11 8 8 10
42 43 44 44 44 44 44 43 42 41 41 42 41 38 29 20 21 23 26 36 28 28 22 27 18 20 24 28 17 29 34 41 40 35 24 30 25 21 31 34 23 30 33 29 8 4 4
45 45 45 43 41 41 42 41 41 40 41 40 41 37 26 15 16 22 37 57 29 29 11 19 29 22 26 32 30 31 30 36 46 42 30 19 21 21 35 34 31 28 28 17 13 6 7
45 45 43 41 41 40 38 39 38 38 39 39 37 33 15 9 15 24 49 48 30 33 19 20 23 28 28 26 41 38 26 27 38 47 42 16 18 15 25 37 32 32 27 22 15 15 7
43 42 40 37 33 35 36 35 34 34 35 35 33 27 14 12 18 25 40 45 37 41 20 37 26 28 31 28 30 37 36 29 29 41 50 41 13 12 29 20 30 30 24 30 19 13 15
38 40 36 32 27 30 30 33 31 30 30 28 30 29 12 15 26 26 30 29 31 43 44 41 32 29 22 25 24 32 34 31 25 43 37 46 29 12 7 15 27 36 40 32 27 17 21
33 28 30 26 27 27 30 32 30 30 28 25 28 21 17 16 17 19 24 26 25 33 38 40 47 34 34 30 28 18 34 28 38 33 34 29 31 40 26 27 23 33 36 39 28 22 23
32 29 27 27 28 29 31 32 30 29 27 26 25 20 19 19 25 27 25 25 27 24 27 40 42 53 43 34 29 33 26 32 31 37 40 37 34 32 37 25 22 28 39 44 46 52 26
28 24 27 29 30 30 30 32 31 29 25 24 25 27 29 34 39 28 25 24 28 29 27 31 33 49 58 47 38 21 29 32 28 31 35 41 20 29 27 30 22 21 23 32 44 46 37
26 27 29 30 31 31 31 29 30 29 24 24 25 28 27 36 29 26 28 27 34 33 31 32 33 35 50 58 38 32 28 28 27 27 32 38 37 20 18 22 20 16 33 31 29 34 42
26 28 30 31 31 29 28 26 26 24 21 24 24 27 29 35 28 28 30 34 39 38 40 35 26 38 50 38 42 37 35 27 25 25 27 38 37 20 12 14 7 25 22 30 34 31 33
26 28 30 30 27 26 25 25 25 24 21 24 23 26 31 36 30 32 30 30 38 38 40 39 30 32 34 32 39 26 20 27 26 25 26 25 33 23 13 17 7 18 21 30 34 28 21
29 29 29 26 27 27 26 26 25 25 23 25 24 25 30 37 34 28 43 37 31 36 42 30 9 30 32 39 30 25 21 20 20 21 29 30 29 26 18 8 10 9 17 17 23 20 28
28 29 28 28 27 28 28 27 25 25 23 25 25 25 30 38 38 34 34 37 36 37 40 38 18 14 34 33 32 27 25 28 19 29 25 26 26 27 17 13 9 11 17 17 16 11 18
28 26 28 28 27 28 27 27 26 24 21 24 25 25 31 39 40 36 24 20 30 28 40 36 34 12 40 26 30 23 14 26 20 27 31 30 19 21 22 11 8 16 18 20 14 12 14
28 28 28 27 27 28 26 24 23 21 22 22 26 27 31 37 44 40 40 37 39 31 34 35 27 17 19 20 19 24 14 23 25 17 32 20 23 20 24 21 10 17 16 19 12 12 17
Wind_Direction
318 318 318 318 317 317 318 319 321 323 323 324 326 330 331 329 316 312 313 314 321 329 337 327 303 290 284 270 256 257 235 223 226 211 213 216 212 208 223 226 222 220 219 227 211 212 240
310 309 309 309 311 312 314 314 314 315 316 318 322 324 326 324 317 310 308 310 311 316 322 334 320 296 283 274 271 245 240 219 233 222 224 219 209 207 233 224 229 231 221 223 215 209 254
309 309 311 312 312 310 310 310 310 310 311 313 314 315 318 319 317 309 303 303 304 301 304 312 325 305 281 277 261 256 224 237 232 227 229 218 199 202 217 217 226 221 222 221 205 216 249
310 309 307 305 305 305 305 307 306 305 306 306 306 307 309 312 313 311 300 294 295 291 291 298 296 297 291 278 258 234 225 242 245 227 216 201 208 205 211 215 221 210 208 194 201 207 224
310 308 307 310 312 310 309 306 302 301 300 299 299 301 303 303 304 305 301 295 289 285 283 280 286 283 295 276 262 250 230 233 241 223 198 200 202 208 206 204 201 195 194 195 202 197 220
310 310 309 310 310 309 308 306 304 302 300 297 295 293 293 295 297 299 298 293 288 282 276 274 272 275 272 291 266 251 241 217 233 219 196 203 202 211 210 211 204 194 197 198 199 204 222
307 306 307 307 309 309 310 311 312 311 310 307 301 294 290 286 287 289 292 292 287 278 273 272 264 256 269 267 277 250 232 214 205 203 202 205 203 205 213 206 199 205 200 199 193 191 207
305 307 308 309 309 310 311 312 312 310 309 308 306 305 298 287 280 280 282 284 278 275 278 272 262 261 254 259 261 259 220 205 197 203 197 202 217 207 215 217 210 221 205 196 199 206 221
314 313 313 312 312 310 308 306 304 304 302 301 299 300 300 295 279 274 274 275 279 277 275 280 275 258 254 255 248 255 219 194 204 203 201 206 210 205 212 210 216 207 203 206 200 210 250
311 309 308 309 308 309 309 307 305 302 300 299 298 295 293 293 278 272 268 269 272 272 277 279 279 263 233 233 238 232 214 206 203 207 205 215 213 209 213 212 209 212 181 207 213 210 231
311 312 314 314 313 312 311 310 309 307 304 300 297 296 292 288 277 261 261 260 264 262 275 266 248 249 218 205 220 222 199 209 199 198 196 207 214 214 218 216 211 217 221 219 230 234 244
315 316 316 315 313 312 312 312 311 310 307 305 303 299 294 288 280 261 250 246 241 224 238 249 239 225 208 195 210 206 199 204 201 203 206 209 222 218 230 222 215 215 212 219 221 215 242
314 314 315 313 313 315 316 315 313 312 310 308 306 304 301 295 289 259 238 222 210 229 217 241 237 225 210 200 202 209 199 200 193 181 204 211 226 225 215 212 208 205 187 154 184 191 240
315 315 316 316 317 317 317 316 315 315 312 309 307 306 307 294 271 250 224 204 226 236 229 246 231 223 201 191 203 202 196 208 208 202 190 200 214 222 212 210 208 200 192 182 201 200 213
316 318 320 320 319 319 319 317 316 316 312 309 308 306 312 297 272 242 208 216 226 239 246 229 233 201 206 203 206 201 209 211 213 204 185 199 217 212 215 203 191 199 210 219 240 250 236
320 320 319 319 318 317 316 315 314 314 311 310 309 308 318 304 262 234 211 232 236 224 233 227 225 227 215 205 202 198 204 219 213 214 202 202 202 219 206 205 201 195 203 193 205 191 229
318 319 318 318 317 316 314 312 311 310 309 311 311 308 309 297 263 223 225 235 248 239 232 239 242 244 237 217 217 204 211 221 219 213 212 209 193 190 206 205 200 195 189 204 207 231 242
315 315 315 313 311 314 312 311 312 312 311 312 314 308 291 259 246 244 248 249 250 243 246 247 256 239 246 232 218 210 218 219 226 204 202 205 206 182 204 212 204 211 212 207 208 200 224
314 312 313 314 312 311 313 318 318 320 322 317 315 308 288 265 259 254 259 268 255 253 247 243 253 246 248 238 231 225 224 220 218 200 199 203 212 161 178 223 218 214 210 211 215 221 213
307 310 311 308 304 306 307 311 311 318 324 316 315 311 300 275 266 273 304 290 286 263 257 250 246 243 246 247 233 241 224 224 223 214 208 210 210 213 210 217 216 214 213 210 208 214 212
302 305 306 304 303 304 306 307 308 312 316 318 306 298 294 283 271 276 299 297 298 297 282 252 251 236 234 243 241 233 224 224 220 213 205 205 219 219 226 234 223 227 226 217 211 226 210
308 305 299 299 301 305 306 305 306 307 305 305 300 300 304 290 285 286 288 291 294 291 299 288 258 241 231 238 228 233 227 231 231 217 209 207 220 216 214 226 226 223 214 224 234 229 223
308 300 299 301 299 303 304 302 301 303 297 296 301 296 299 297 304 293 277 286 292 297 287 299 281 260 232 230 230 240 250 241 244 235 223 210 209 206 218 217 218 239 226 225 235 230 227
305 303 301 304 303 304 302 298 299 300 291 290 295 293 290 289 292 295 285 281 286 290 296 299 276 257 223 222 227 233 235 233 233 231 226 215 207 199 189 163 201 239 229 231 237 240 231
301 300 304 307 305 300 299 299 297 294 293 288 289 288 290 288 291 294 297 291 282 286 296 308 266 242 214 214 215 216 225 229 224 225 220 211 204 202 195 206 240 239 221 215 211 220 215
300 304 305 305 303 304 303 298 295 293 293 290 284 288 287 288 289 287 300 304 303 293 300 311 283 221 205 201 189 199 201 213 209 213 213 207 201 198 186 206 224 226 215 212 219 226 222
300 305 305 306 309 309 305 302 300 293 291 284 283 286 285 285 289 297 295 295 294 290 293 302 316 256 193 200 190 200 209 200 187 192 187 193 192 199 197 211 232 225 198 185 176 212 211
304 305 306 307 308 309 302 302 300 294 286 280 284 286 290 289 289 297 297 289 297 288 278 292 321 197 188 192 192 196 191 187 195 191 186 186 171 192 201 198 227 198 193 184 207 204 203
306 309 308 308 307 310 304 302 297 292 287 285 288 290 290 287 290 293 289 279 285 284 285 290 275 303 201 185 187 189 166 176 185 175 191 183 195 184 189 200 199 194 195 195 189 182 173
Height
3152 3149 3147 3145 3142 3139 3135 3133 3130 3127 3123 3120 3117 3113 3108 3105 3102 3099 3095 3091 3088 3084 3079 3075 3073 3069 3069 3069 3069 3068 3068 3070 3070 3075 3079 3082 3085 3090 3093 3097 3101 3104 3109 3112 3113 3119 3122
3149 3147 3144 3141 3138 3135 3132 3130 3127 3124 3120 3117 3114 3111 3106 3102 3098 3095 3092 3089 3086 3082 3078 3074 3072 3070 3068 3066 3066 3066 3067 3067 3071 3073 3076 3080 3084 3090 3092 3097 3096 3099 3102 3102 3109 3114 3120
3146 3143 3140 3137 3134 3131 3128 3125 3123 3120 3116 3113 3110 3106 3102 3098 3095 3091 3088 3085 3084 3080 3077 3072 3069 3069 3066 3066 3063 3063 3065 3067 3067 3070 3073 3078 3082 3088 3088 3092 3093 3093 3097 3099 3104 3108 3118
3141 3138 3134 3131 3128 3125 3122 3119 3116 3113 3111 3107 3104 3102 3099 3095 3091 3088 3084 3080 3079 3076 3073 3073 3067 3065 3062 3062 3061 3062 3063 3065 3066 3066 3070 3074 3079 3081 3085 3088 3088 3092 3094 3096 3100 3107 3114
3136 3132 3129 3126 3123 3120 3116 3113 3109 3106 3103 3100 3098 3096 3094 3091 3088 3083 3079 3076 3074 3071 3069 3067 3067 3061 3058 3059 3058 3061 3061 3064 3064 3063 3063 3070 3074 3079 3081 3084 3086 3085 3087 3092 3095 3102 3109
3131 3127 3124 3120 3117 3114 3110 3107 3103 3099 3096 3093 3091 3089 3087 3085 3083 3080 3075 3071 3069 3066 3064 3063 3061 3063 3057 3055 3055 3058 3059 3058 3061 3061 3062 3066 3071 3074 3077 3080 3078 3080 3086 3090 3090 3097 3104
3122 3120 3117 3113 3110 3107 3103 3100 3096 3093 3089 3087 3084 3081 3079 3077 3075 3074 3071 3067 3066 3061 3057 3058 3055 3054 3052 3051 3052 3053 3057 3054 3057 3058 3057 3063 3065 3064 3070 3074 3080 3085 3086 3086 3091 3092 3100
3115 3112 3108 3105 3101 3097 3094 3090 3087 3084 3081 3079 3076 3073 3071 3069 3067 3066 3065 3062 3058 3056 3047 3047 3048 3044 3046 3047 3046 3047 3049 3050 3051 3052 3058 3065 3057 3064 3073 3077 3078 3079 3082 3085 3088 3089 3095
3109 3106 3102 3098 3094 3090 3087 3083 3080 3077 3073 3070 3067 3064 3062 3061 3058 3059 3057 3055 3053 3049 3042 3034 3036 3035 3039 3039 3041 3041 3045 3045 3047 3052 3052 3054 3053 3065 3070 3074 3075 3075 3076 3081 3083 3086 3089
3103 3099 3094 3089 3085 3081 3077 3074 3072 3069 3065 3061 3058 3056 3053 3052 3052 3049 3050 3049 3047 3046 3039 3027 3024 3022 3025 3028 3031 3037 3039 3046 3045 3048 3054 3055 3060 3061 3066 3069 3072 3073 3075 3078 3080 3086 3090
3097 3092 3087 3083 3078 3074 3070 3067 3063 3058 3055 3052 3049 3046 3044 3041 3041 3041 3041 3043 3043 3043 3038 3024 3017 3016 3017 3023 3024 3029 3034 3039 3042 3046 3050 3051 3056 3058 3059 3060 3069 3073 3074 3079 3080 3084 3087
3089 3085 3081 3076 3072 3067 3062 3058 3053 3049 3045 3042 3040 3037 3034 3034 3033 3034 3034 3036 3040 3043 3025 3017 3013 3010 3013 3016 3021 3022 3029 3035 3039 3044 3046 3052 3053 3055 3056 3064 3066 3068 3072 3077 3079 3084 3081
3083 3079 3074 3069 3064 3058 3053 3049 3045 3040 3034 3030 3027 3028 3027 3025 3026 3025 3027 3030 3035 3022 3013 3008 3007 3005 3007 3009 3016 3017 3023 3025 3028 3034 3037 3045 3045 3046 3051 3056 3060 3064 3068 3074 3079 3080 3069
3077 3071 3065 3060 3054 3050 3044 3038 3033 3029 3023 3018 3015 3015 3019 3017 3016 3018 3021 3024 3013 2999 3003 3001 3002 3004 3003 3007 3011 3013 3016 3021 3024 3027 3030 3037 3042 3038 3042 3047 3048 3053 3059 3059 3063 3061 3062
3068 3062 3056 3050 3044 3039 3034 3028 3024 3019 3015 3009 3005 3004 3008 3009 3008 3008 3013 3005 2984 2993 3000 3000 3000 2999 3000 3001 3004 3008 3008 3010 3017 3020 3018 3029 3035 3033 3039 3043 3048 3050 3053 3058 3059 3057 3057
3058 3053 3047 3041 3036 3031 3027 3022 3017 3012 3006 3002 2996 2994 2998 2998 2998 2998 2997 2975 2982 2988 2992 2993 2991 2993 2991 2991 2996 2998 3001 2998 3004 3013 3019 3021 3028 3029 3031 3037 3040 3042 3049 3054 3053 3055 3051
3049 3044 3038 3034 3028 3023 3019 3015 3011 3005 3000 2996 2992 2988 2994 2992 2991 2989 2974 2970 2980 2984 2987 2989 2988 2988 2988 2988 2983 2986 2987 2992 2995 3002 3014 3018 3016 3025 3026 3024 3029 3034 3038 3042 3045 3046 3039
3042 3036 3031 3027 3023 3018 3013 3009 3004 2999 2995 2991 2985 2982 2986 2985 2986 2979 2971 2973 2976 2974 2979 2979 2979 2979 2981 2984 2981 2981 2978 2984 2987 2995 2996 3008 3015 3012 3016 3020 3024 3028 3033 3035 3037 3038 3039
3034 3029 3024 3020 3016 3012 3008 3004 2999 2995 2991 2985 2980 2975 2978 2977 2973 2972 2970 2963 2963 2965 2966 2970 2972 2974 2978 2977 2977 2973 2976 2981 2982 2986 2990 2997 3002 3009 3016 3019 3019 3018 3020 3025 3031 3031 3030
3026 3022 3017 3013 3009 3005 3002 2998 2995 2991 2987 2983 2978 2972 2972 2969 2967 2965 2960 2955 2954 2956 2955 2960 2961 2970 2969 2968 2968 2967 2968 2970 2974 2980 2985 2990 2993 2992 2988 2992 3002 3007 3010 3017 3024 3026 3022
3017 3015 3011 3007 3002 3000 2996 2992 2989 2986 2982 2979 2975 2971 2968 2964 2961 2956 2957 2954 2949 2947 2948 2950 2949 2952 2957 2959 2960 2959 2963 2962 2967 2971 2977 2980 2982 2985 2988 2992 2994 2995 2999 3005 3011 3008 3021
3009 3005 3003 2999 2995 2992 2989 2985 2982 2980 2977 2974 2969 2966 2962 2958 2954 2953 2951 2948 2945 2942 2939 2934 2936 2939 2946 2947 2953 2957 2957 2958 2960 2965 2969 2972 2975 2980 2982 2984 2988 2991 2995 2997 2999 3006 3013
3002 2999 2995 2992 2987 2984 2981 2978 2975 2973 2970 2966 2964 2960 2956 2949 2947 2947 2944 2941 2935 2933 2925 2927 2925 2924 2930 2934 2949 2953 2953 2954 2956 2958 2961 2965 2967 2976 2979 2981 2984 2988 2984 2988 2992 2997 3002
2996 2992 2988 2984 2980 2976 2973 2971 2968 2966 2964 2960 2958 2953 2950 2941 2943 2940 2937 2933 2928 2924 2919 2911 2912 2910 2914 2933 2941 2942 2943 2945 2946 2950 2955 2957 2963 2971 2975 2980 2983 2972 2978 2982 2987 2990 2994
2989 2985 2981 2977 2973 2970 2966 2964 2961 2959 2958 2954 2951 2948 2942 2934 2935 2932 2930 2926 2919 2916 2909 2903 2901 2898 2912 2917 2926 2932 2935 2937 2939 2942 2949 2954 2957 2964 2970 2973 2970 2967 2969 2972 2976 2983 2988
2982 2978 2974 2970 2966 2963 2960 2957 2954 2952 2950 2946 2944 2941 2936 2928 2928 2926 2921 2919 2913 2907 2898 2894 2889 2894 2899 2907 2912 2916 2922 2928 2932 2936 2942 2949 2954 2960 2963 2967 2963 2962 2965 2969 2974 2978 2981
2975 2971 2967 2963 2959 2956 2952 2949 2947 2944 2942 2939 2936 2935 2929 2920 2919 2919 2916 2912 2910 2905 2898 2889 2885 2881 2891 2896 2903 2911 2915 2920 2924 2926 2935 2944 2949 2951 2957 2961 2961 2960 2963 2967 2973 2976 2977
2968 2965 2960 2956 2953 2949 2945 2942 2939 2936 2934 2931 2929 2928 2922 2912 2908 2911 2907 2905 2902 2901 2895 2889 2887 2880 2885 2892 2897 2902 2904 2911 2917 2920 2925 2933 2942 2946 2953 2956 2958 2958 2961 2965 2967 2970 2973
2961 2958 2954 2950 2946 2942 2938 2935 2932 2929 2928 2925 2921 2920 2915 2907 2900 2901 2898 2896 2894 2892 2889 2886 2884 2878 2881 2885 2890 2894 2898 2904 2909 2915 2921 2929 2932 2936 2943 2946 2949 2953 2959 2962 2965 2968 2972